Regional Weather Roundup
Issued by NWS

Home | Current Version | Previous Version | Graphics & Text | Print | Product List | Glossary On
Versions: 1 2 3 4 5 6 7 8 9 10 11 12 13 14 15 16 17 18 19 20 21 22 23 24 25 26 27 28 29 30 31 32 33 34 35 36 37 38 39 40 41 42 43 44 45 46 47 48 49 50
000
ASUS45 KTFX 300419
RWRMT
MONTANA REGIONAL WEATHER ROUNDUP
NATIONAL WEATHER SERVICE GREAT FALLS MT
1000 PM MDT SAT AUG 29 2015

NOTE: "FAIR" INDICATES FEW OR NO CLOUDS BELOW 12000 FEET WITH NO
SIGNIFICANT WEATHER AND/OR OBSTRUCTIONS TO VISIBILITY.

MTZ001>007-043-300500-
WEST OF THE DIVIDE

CITY           SKY/WX    TMP DP  RH WIND       PRES   REMARKS
KALISPELL      LGT RAIN  65  46  50 CALM      29.86R SMOKE
MISSOULA       CLOUDY    70  46  42 N9        29.86R HAZE
BUTTE          CLOUDY    67  48  50 W3        29.91S
MULLAN PASS    MOCLDY    49  41  74 SW6       30.00R
DEER LODGE       N/A     70  43  37 N7        29.92R
EUREKA           N/A     66  41  39 SE7       29.84F
HAMILTON         N/A     70  46  43 N2        29.82S
LIBBY            N/A     61  48  63 SE6       29.86S
RONAN            N/A     68  46  45 N3        29.93R
$$

MTZ008-052>055-300500-
SOUTHWEST MONTANA

CITY           SKY/WX    TMP DP  RH WIND       PRES   REMARKS
BOZEMAN        CLOUDY    78  41  26 S8        29.83R
DILLON         CLOUDY    77  34  21 SW9G21    29.88S
W YELLOWSTONE  CLOUDY    59  48  67 S14G33    30.13R
THREE FORKS      N/A     76  36  23 W6        29.83R
TWIN BRIDGES     N/A     74  43  32 SE7       29.87S
$$

MTZ009-010-012-014-046-048-049-054-300500-
EAST SLOPES AND CENTRAL MONTANA

CITY           SKY/WX    TMP DP  RH WIND       PRES   REMARKS
CUT BANK       CLOUDY    72  42  34 W22G31    29.78R
GREAT FALLS    MOCLDY    69  51  52 SW12      29.77R
MALMSTROM AFB  MOCLDY    74  49  40 SW16      29.76R
HELENA         CLOUDY    69  55  60 S7        29.81R
CONRAD           N/A     70  46  42 W1        29.82R
$$

MTZ011-013-016-021-045-047-050-051-300500-
NORTH CENTRAL MONTANA

CITY           SKY/WX    TMP DP  RH WIND       PRES   REMARKS
HAVRE          CLOUDY    75  54  47 SE5       29.66F
LEWISTOWN      CLOUDY    65  49  56 SW10      29.85R
N BAR RANCH      N/A     79  41  25 W9        29.87S
CHINOOK          N/A     79  52  38 E5        29.66F
FORT BENTON      N/A     70  57  64 SW3       29.72R
$$

MTZ017>020-022>027-061-062-300500-
NORTHEAST MONTANA

CITY           SKY/WX    TMP DP  RH WIND       PRES   REMARKS
GLASGOW        MOCLDY    79  46  31 E15       29.69S HAZE
JORDAN           N/A     80  42  25 SE3       29.71F
SIDNEY         CLOUDY    70  55  60 CALM      29.74S
WOLF POINT     CLOUDY    73  50  44 NE5       29.70F HAZE
MALTA            N/A     83  46  27 W9        29.70R
PLENTYWOOD       N/A     79  45  29 E5        29.75F
POPLAR           N/A     79  52  38 E10       29.71F
SCOBEY           N/A     76  46  34 E10       29.75F
$$

MTZ028>42-056>058-300500-
SOUTHCENTRAL AND SOUTHEAST MONTANA

CITY           SKY/WX    TMP DP  RH WIND       PRES   REMARKS
BAKER          MOCLDY    76  51  41 S13       29.84F
BILLINGS       CLOUDY    80  40  23 S9        29.81S
LIVINGSTON     PTCLDY    81  41  24 S18       29.85S
MILES CITY     MOCLDY    83  42  23 SE7       29.76S
FORSYTH          N/A     84  39  20 CALM      29.74F
LAUREL           N/A     76  40  27 W3        29.82S
ROUNDUP          N/A     79  40  24 CALM      29.72F
$$

REGIONAL REPORTS...DAKOTAS

CITY           SKY/WX    TMP DP  RH WIND       PRES   REMARKS
WILLISTON      MOCLDY    71  53  52 N5        29.75F HAZE
MINOT          CLOUDY    70  58  65 CALM      29.75F HAZE
DICKINSON      CLOUDY    71  51  49 S7        29.81F
BEACH            N/A     68  50  52 SE9       29.82F
CROSBY           N/A     68  50  52 SE9       29.77F HAZE
BISMARCK       PTCLDY    71  61  70 SE6       29.82F
GRAND FORKS    PTCLDY    71  68  90 S13       29.80F
FARGO          PTCLDY    71  65  81 S14       29.86F
BUFFALO SD       N/A     75  53  46 SE13      29.80F
RAPID CITY     PTCLDY    71  47  42 S5        29.93S
$$

REGIONAL REPORTS...WYOMING/IDAHO/WASHINGTON

CITY           SKY/WX    TMP DP  RH WIND       PRES   REMARKS
GILLETTE       MOCLDY    75  35  23 S13       29.92S
SHERIDAN       PTCLDY    67  42  40 SW5       29.86S
BUFFALO WY     PTCLDY    77  33  20 W8        29.96F
CODY           CLOUDY    70  39  32 S5        29.94F
YELLOWSTONE LA   N/A     61  40  45 NW8G18    30.22R
IDAHO FALLS    CLOUDY    65  53  65 NW7       29.93F
SALMON         MOCLDY    73  36  25 S3        29.80R
BOISE          MOCLDY    79  47  32 NW13G24   29.82R
SPOKANE        CLOUDY    64  43  46 SW9       29.85R
$$

REGIONAL REPORTS...ALBERTA

CITY           SKY/WX    TMP DP  RH WIND       PRES   REMARKS
EDMONTON       CLEAR     72  52  49 SW10      29.42R
CALGARY        PTCLDY    64  39  39 S12G18    29.63R
LETHBRIDGE     PTCLDY    70  41  35 W18G26    29.73R
MEDICINE HAT   PTCLDY    72  54  53 SW8       29.66R
WATERTON GATE    N/A     61  36  39 SW23G40     N/A
CARDSTON         N/A     64  37  36 W12G21      N/A
MILK RIVER       N/A     70  43  37 W6          N/A
ONEFOUR          N/A     75  46  35 W2          N/A
$$

REGIONAL REPORTS...SASKATCHEWAN

CITY           SKY/WX    TMP DP  RH WIND       PRES   REMARKS
SWIFT CURRENT  MOCLDY    75  48  38 SE20G25   29.66F HAZE
REGINA         CLOUDY    68  54  60 SE9       29.74S SMOKE
SASKATOON      CLOUDY    68  55  64 SE10      29.65F
CYPRESS HILLS    N/A     72  43  35 S9          N/A
VAL MARIE        N/A     72  45  37 N2          N/A
ROCKGLEN         N/A     72  48  43 SE12        N/A
ASSINIBOIA       N/A     70  52  52 SE12        N/A
$$



USA.gov is the U.S. government's official web portal to all federal, state and local government web resources and services.